1461 visiteurs
Prévisions de votre ville :
Vigilance : 79 départements 11 départements Mise à jour le 13/12/2019 à 13:22 - Voir la carte

Paris Roissy CDG (95380) le 13/12/2019 à 14:00 Choisir station

8.8°C 65 % O Rafales 35 km/h
Vit. moyenne 19 kmh/h

Relevés météo quotidiens pour la station de :

UTC
S: Synop
M: Metar
Loc T°C
(°C)
Td
(°C)
HR
(%)
Vis
(km)
Néb
(octa)
Vent
(km/h)
Pression
(mb)
Précipitations
(mm)
Temps
              MOY
10 min
DIR RAF 1h MESURE VAR SUR 3h    
S 00 h 02h 15.6 8.6 63 60 - - - 6 1015.3 -0.2/3h 0.0/6h - 0.0/3h -
S 01 h 03h 15.3 8.8 65 60 - 2 4 1014.9 -0.7/3h 0.0/1h -
S 02 h 04h 13.4 8.7 73 60 - 4 4 1014.7 -1.1/3h 0.0/1h -
S 03 h 05h 13.2 8.9 75 60 - 4 6 1014.4 -1.1/3h 0.0/3h -
S 04 h 06h 12.8 8.9 77 50 - 2 9 1014.1 -1.0/3h 0.0/1h -
S 05 h 07h 15.1 10.1 72 28 - 2 4 1013.9 -0.6/3h 0.0/1h -
S 06 h 08h 18.8 10.9 60 50 - 4 9 1013.6 -0.3/3h 0.0/12h - 0.0/3h - 0.0/24h -
S 07 h 09h 21.9 10.7 49 50 - 6 9 1013.1 -0.2/3h 0.0/1h -
S 08 h 10h 25.8 8.3 33 50 - 6 19 1012.6 -0.4/3h 0.0/1h -
S 09 h 11h 28.3 7.0 26 45 - 2 7 1012.0 -0.8/3h 0.0/3h -
S 10 h 12h 29.1 6.5 24 18 - 4 9 1011.4 -1.1/3h 0.0/1h -
S 11 h 13h 30.5 5.0 20 50 - 6 11 1011.0 -1.2/3h 0.0/1h -
S 12 h 14h 30.5 4.3 19 55 - 9 26 1010.4 -1.4/3h 0.0/6h - 0.0/3h -
S 13 h 15h 31.6 5.9 20 19 7/8 15 28 1009.9 -1.3/3h 0.0/1h
S 14 h 16h 32.5 5.9 19 35 - 7 15 1009.3 -1.5/3h 0.0/1h -
S 15 h 17h 32.2 5.6 19 50 - 15 28 1008.7 -1.5/3h 0.0/3h -
S 16 h 18h 32.9 4.6 17 60 - 15 39 1008.3 -1.4/3h 0.0/1h -
S 17 h 19h 31.5 5.1 19 60 6/8 15 37 1008.2 -1.1/3h 0.0/1h
S 18 h 20h 31.0 6.8 22 45 8/8 7 17 1008.3 -0.5/3h 0.0/12h - 0.0/3h
S 19 h 21h 29.8 7.7 25 60 8/8 6 13 1008.6 0.0/3h 0.0/1h
S 20 h 22h 25.9 14.7 50 55 - 13 19 1009.3 +0.7/3h 0.0/1h -
S 21 h 23h 24.6 11.9 45 60 - 11 17 1010.0 +1.2/3h 0.0/3h -
S 22 h 00h 22.3 9.1 43 60 - 0 11 1010.8 +1.6/3h 0.0/1h -
S 23 h 01h 21.3 8.5 44 60 - 6 7 1011.2 +1.4/3h 0.0/1h -
evolution des temperatures
cumul des precipitations
vent moyen et rafales
pression atmospherique

Un tiret (-) signifie que les données ne sont pas disponibles.

Passez la souris sur les pictos temps pour avoir plus de précisions. Passez les flèches sur l'icône de la direction du vent pour voir la direction précise en degrés.

Les données de l'heure en cours sont disponibles à partir de H+15 minutes.


S signifie station Synop, plus complète qu'une station Metar (M). Il y a +1h de différence entre l'heure UTC et l'heure légale en hiver et +2h en été.

Td est la mesure du point de rosée.

HR est l'humidité relative/p>

Vis est la visibilité

Néb est la nébulosité du ciel (couverture nuageuse) exprimée en octas (de 0/8 à 8/8).

Vent moy 10 min donne le vent moyen sur les 10 minutes qui précèdent le relevé.

Vent raf 1h donne la rafale maximale mesurée dans l'heure qui précède le relevé.


Les données les plus anciennes remontent à avril 2014.

Les données présentées sur cette page proviennent des stations météo officielles. Les relevés sont effectués aux normes en vigueur (anémomètre à 10m de haut, thermomètre sous abri normalisé à 2m du sol...)

Météo 60 décline toute responsabilité en cas d'absence de données, d'erreurs, de mauvaise utilisation ou interprétation et n'est pas habilité à fournir des certificats intempéries.